Weather History for Rome, NY

Change the Weather History Date:

Monday, February 4, 2013

  Actual Average Record
Temperature  
Mean Temperature 16 °F -  
Max Temperature 19 °F 30 °F 58 °F (1991)
Min Temperature 12 °F 13 °F -9 °F (2011)
Degree Days  
Heating Degree Days 48    
Moisture  
Dew Point 13 °F    
Average Humidity 83    
Maximum Humidity 93    
Minimum Humidity 62    
Precipitation  
Precipitation 0.04 in - - ()
Sea Level Pressure  
Sea Level Pressure 29.89 in    
Wind  
Wind Speed 8 mph (WNW)    
Max Wind Speed 20 mph    
Max Gust Speed 26 mph    
Visibility 3 miles    
Events Fog , Snow    
Averages and records for this station are not official NWS values.
T = Trace of Precipitation, MM = Missing Value Source: NWS Daily Summary

Daily Weather History Graph

Daily Weather History Graph

Search for Another Location

Airport:

Trip Planner

Search our weather history database for the weather conditions in past years. The results will help you decide how hot, cold, wet, or windy it might be!

Date:

Astronomy

Feb. 04, 2013 Rise Set
Actual Time 7:13 AM EST 5:18 PM EST
Civil Twilight 6:43 AM EST 5:48 PM EST
Nautical Twilight 6:09 AM EST 6:22 PM EST
Astronomical Twilight 5:36 AM EST 6:55 PM EST
Moon 1:48 AM EST (2/4) 11:37 AM EST (2/4)
Length of Visible Light 11h 04m
Length of Day
10h 04m
Last Quarter, 37% of the Moon is Illuminated
Feb 4
Last Quarter
Feb 10
New
Feb 17
First Quarter
Feb 25
Full
Mar 4
Last Quarter

Hourly Weather History & Observations

Time (EST) Temp. Windchill Dew Point Humidity Pressure Visibility Wind Dir Wind Speed Gust Speed Precip Events Conditions
12:02 AM 19.9 °F 9.3 °F 17.1 °F 89% 29.81 in 1.0 mi West 9.2 mph - 0.00 in Snow Light Snow
12:51 AM 19.4 °F 9.5 °F 17.6 °F 93% 29.81 in 1.8 mi West 8.1 mph - 0.00 in Snow Light Snow
12:53 AM 19.9 °F 11.1 °F 17.1 °F 89% 29.83 in 1.8 mi West 6.9 mph - 0.00 in Snow Light Snow
1:09 AM 19.9 °F 12.1 °F 17.1 °F 89% 29.81 in 3.0 mi West 5.8 mph - 0.00 in Snow Light Snow
1:20 AM 19.9 °F 9.3 °F 17.1 °F 89% 29.80 in 4.0 mi West 9.2 mph - 0.00 in Snow Light Snow
1:53 AM 19.9 °F 9.3 °F 15.1 °F 81% 29.83 in 6.0 mi West 9.2 mph - 0.00 in Snow Light Snow
2:26 AM 19.9 °F 7.3 °F 14.0 °F 78% 29.82 in 1.8 mi West 12.7 mph - 0.00 in Snow Light Snow
2:49 AM 19.4 °F 8.6 °F 14.0 °F 80% 29.82 in 2.5 mi West 9.2 mph - 0.00 in Snow Light Snow
2:53 AM 18.0 °F 6.1 °F 15.1 °F 88% 29.84 in 2.0 mi West 10.4 mph - 0.00 in Snow Light Snow
3:08 AM 18.0 °F 6.1 °F 15.1 °F 88% 29.82 in 3.0 mi West 10.4 mph - 0.00 in Snow Light Snow
3:27 AM 19.0 °F 8.2 °F 15.1 °F 85% 29.83 in 2.0 mi West 9.2 mph - 0.00 in Snow Light Snow
3:33 AM 19.0 °F 10.0 °F 15.1 °F 85% 29.83 in 1.8 mi West 6.9 mph - 0.00 in Snow Light Snow
3:49 AM 17.6 °F 5.7 °F 14.0 °F 86% 29.83 in 2.0 mi West 10.4 mph - 0.00 in Snow Light Snow
3:53 AM 18.0 °F 6.1 °F 14.0 °F 84% 29.85 in 2.0 mi West 10.4 mph - 0.00 in Snow Light Snow
4:15 AM 18.0 °F 8.7 °F 14.0 °F 84% 29.84 in 3.0 mi West 6.9 mph - 0.00 in Snow Light Snow
4:29 AM 18.0 °F 7.7 °F 14.0 °F 84% 29.84 in 2.0 mi West 8.1 mph - 0.00 in Snow Light Snow
5:53 AM 18.0 °F 7.7 °F 15.1 °F 88% 29.87 in 0.8 mi WNW 8.1 mph - 0.01 in Snow Light Snow
6:00 AM 17.1 °F 7.6 °F 15.1 °F 92% 29.85 in 0.5 mi WNW 6.9 mph - 0.01 in Fog , Snow Snow
6:21 AM 17.1 °F 5.8 °F 14.0 °F 88% 29.86 in 1.0 mi West 9.2 mph - 0.02 in Snow Light Snow
6:30 AM 17.1 °F 5.8 °F 14.0 °F 88% 29.85 in 1.0 mi West 9.2 mph - 0.02 in Snow Light Snow
6:41 AM 17.1 °F 6.6 °F 14.0 °F 88% 29.86 in 0.8 mi West 8.1 mph - 0.02 in Snow Light Snow
6:48 AM 17.6 °F 5.7 °F 14.0 °F 86% 29.86 in 1.2 mi West 10.4 mph - 0.02 in Snow Light Snow
6:53 AM 17.1 °F 5.0 °F 14.0 °F 88% 29.88 in 2.0 mi West 10.4 mph - 0.02 in Snow Light Snow
7:08 AM 17.1 °F 5.0 °F 12.9 °F 84% 29.87 in 3.0 mi West 10.4 mph - 0.00 in Snow Light Snow
7:14 AM 17.1 °F 5.0 °F 14.0 °F 88% 29.87 in 1.8 mi West 10.4 mph - 0.00 in Snow Light Snow
7:30 AM 17.1 °F 5.0 °F 14.0 °F 88% 29.87 in 3.0 mi West 10.4 mph - 0.00 in Snow Light Snow
7:53 AM 17.1 °F 7.6 °F 14.0 °F 88% 29.91 in 6.0 mi West 6.9 mph - 0.00 in   Overcast
8:00 AM 17.1 °F 6.6 °F 14.0 °F 88% 29.89 in 5.0 mi West 8.1 mph - N/A   Overcast
8:53 AM 19.0 °F 6.1 °F 15.1 °F 85% 29.91 in 1.5 mi West 12.7 mph - 0.00 in Snow Light Snow
9:16 AM 19.0 °F 6.8 °F 15.1 °F 85% 29.89 in 0.8 mi WNW 11.5 mph - 0.00 in Snow Light Snow
9:23 AM 19.0 °F 8.2 °F 15.1 °F 85% 29.89 in 0.5 mi WNW 9.2 mph - 0.00 in Fog , Snow Snow
9:53 AM 19.0 °F 8.2 °F 16.0 °F 88% 29.91 in 1.0 mi NW 9.2 mph - 0.00 in Snow Light Snow
9:59 AM 19.0 °F 6.1 °F 14.0 °F 81% 29.89 in 2.0 mi NW 12.7 mph - 0.00 in Snow Light Snow
10:11 AM 19.0 °F 6.8 °F 12.9 °F 77% 29.89 in 5.0 mi WNW 11.5 mph - 0.00 in   Haze
10:31 AM 19.0 °F 6.1 °F 12.9 °F 77% 29.89 in 2.0 mi NW 12.7 mph - 0.00 in Snow Light Snow
10:40 AM 19.0 °F 6.8 °F 12.9 °F 77% 29.89 in 1.2 mi NW 11.5 mph - 0.00 in Snow Light Snow
10:53 AM 19.0 °F 8.2 °F 12.9 °F 77% 29.91 in 1.8 mi WNW 9.2 mph - 0.00 in Snow Light Snow
10:56 AM 19.0 °F 6.8 °F 12.9 °F 77% 29.89 in 3.0 mi WNW 11.5 mph - 0.00 in Snow Light Snow
11:05 AM 19.0 °F 6.8 °F 10.9 °F 71% 29.89 in 2.5 mi WNW 11.5 mph - 0.00 in Snow Light Snow
11:13 AM 19.0 °F 7.5 °F 10.9 °F 71% 29.89 in 2.5 mi WNW 10.4 mph 19.6 mph 0.00 in   Haze
11:53 AM 19.9 °F 5.2 °F 9.0 °F 62% 29.91 in 2.5 mi WNW 17.3 mph 26.5 mph 0.00 in   Haze
12:00 PM 19.0 °F 3.2 °F 9.0 °F 65% 29.89 in 10.0 mi WNW 19.6 mph 26.5 mph N/A   Overcast
12:53 PM 19.0 °F 3.2 °F 9.0 °F 65% 29.91 in 10.0 mi WNW 19.6 mph 24.2 mph 0.00 in   Overcast
1:53 PM 19.0 °F 4.0 °F 8.1 °F 62% 29.91 in 10.0 mi West 17.3 mph - N/A   Overcast
2:53 PM 19.0 °F 6.8 °F 9.0 °F 65% 29.92 in 10.0 mi WNW 11.5 mph - N/A   Overcast
3:53 PM 19.0 °F 6.8 °F 9.0 °F 65% 29.93 in 10.0 mi West 11.5 mph - N/A   Overcast
4:45 PM 18.0 °F 6.9 °F 10.9 °F 74% 29.91 in 4.0 mi WNW 9.2 mph - 0.00 in Snow Light Snow
4:53 PM 18.0 °F 6.9 °F 10.9 °F 74% 29.93 in 5.0 mi West 9.2 mph - 0.00 in Snow Light Snow
5:23 PM 18.0 °F 7.7 °F 12.0 °F 78% 29.91 in 2.0 mi WNW 8.1 mph - 0.00 in Snow Light Snow
5:30 PM 17.1 °F 5.8 °F 12.0 °F 81% 29.91 in 1.8 mi WNW 9.2 mph - 0.00 in Snow Light Snow
5:37 PM 17.1 °F 7.6 °F 12.0 °F 81% 29.91 in 2.5 mi WNW 6.9 mph - 0.00 in Snow Light Snow
5:53 PM 17.1 °F 7.6 °F 12.9 °F 84% 29.94 in 3.0 mi WNW 6.9 mph - 0.00 in Snow Light Snow
6:01 PM 17.1 °F 8.7 °F 12.9 °F 84% 29.91 in 2.0 mi WNW 5.8 mph - 0.00 in Snow Light Snow
6:53 PM 17.1 °F - 14.0 °F 88% 29.94 in 2.0 mi Calm Calm - 0.00 in Snow Light Snow
7:00 PM 17.1 °F - 14.0 °F 88% 29.92 in 1.5 mi Calm Calm - 0.00 in Snow Light Snow
7:10 PM 17.1 °F - 12.9 °F 84% 29.92 in 2.5 mi Calm Calm - 0.00 in Snow Light Snow
7:19 PM 17.1 °F - 14.0 °F 88% 29.92 in 1.5 mi Calm Calm - 0.00 in Snow Light Snow
7:24 PM 17.1 °F - 14.0 °F 88% 29.92 in 3.0 mi Calm Calm - 0.00 in Snow Light Snow
7:31 PM 17.1 °F - 14.0 °F 88% 29.93 in 2.5 mi Calm Calm - 0.00 in Snow Light Snow
7:35 PM 17.1 °F - 12.9 °F 84% 29.93 in 1.5 mi Calm Calm - 0.00 in Snow Light Snow
7:53 PM 17.1 °F - 14.0 °F 88% 29.95 in 2.0 mi Calm Calm - 0.01 in Snow Light Snow
8:05 PM 17.1 °F - 14.0 °F 88% 29.93 in 1.2 mi Calm Calm - 0.00 in Snow Light Snow
8:38 PM 17.1 °F - 14.0 °F 88% 29.93 in 2.0 mi Calm Calm - 0.00 in Snow Light Snow
8:53 PM 17.1 °F - 14.0 °F 88% 29.95 in 2.5 mi Calm Calm - 0.00 in Snow Light Snow
9:00 PM 17.1 °F - 14.0 °F 88% 29.93 in 1.5 mi Calm Calm - 0.00 in Snow Light Snow
9:06 PM 17.1 °F - 14.0 °F 88% 29.93 in 3.0 mi Calm Calm - 0.00 in Snow Light Snow
9:53 PM 16.0 °F - 12.9 °F 88% 29.96 in 6.0 mi Calm Calm - 0.00 in Snow Light Snow
10:53 PM 14.0 °F - 12.0 °F 92% 29.96 in 6.0 mi Calm Calm - 0.00 in Snow Light Snow
11:53 PM 12.0 °F - 9.0 °F 88% 29.97 in 6.0 mi Calm Calm - 0.00 in Snow Light Snow